Wind_Speed
11 11 11 10 7 8 8 5 6 4 7 6 3 7 3 11 10 11 23 21 20 18 22 22 22 23 23 23 21 21 20 18 16 15 15 14 14 14 13 14 14 14 13 13 13 13 13 12 14
12 11 15 17 12 12 8 6 2 3 4 7 7 4 2 5 4 22 22 22 21 19 20 22 23 24 23 22 20 19 17 16 15 14 14 13 12 13 12 13 13 13 13 13 13 12 12 11 10
8 11 9 3 13 11 7 5 5 4 6 7 9 6 4 9 19 19 21 23 20 19 22 22 24 23 21 20 18 17 16 14 13 13 13 13 11 11 11 12 12 12 12 12 13 12 12 11 11
4 7 10 13 12 13 9 6 6 6 6 8 9 8 15 19 14 17 21 20 20 20 23 23 23 22 20 19 17 16 14 12 12 12 11 11 11 10 10 10 10 11 11 11 12 11 10 10 10
4 6 7 9 10 11 11 9 7 9 9 8 9 15 15 12 15 19 19 19 19 23 22 25 25 22 19 17 17 16 14 12 10 10 9 8 10 10 9 11 10 10 10 10 10 9 9 8 9
3 6 7 6 6 8 11 10 8 9 6 6 9 17 16 14 17 19 19 17 19 22 23 24 24 21 16 16 16 16 14 11 9 8 7 7 7 8 8 8 9 9 8 8 8 8 8 9 8
4 7 6 5 4 6 9 11 11 10 8 7 9 14 16 16 15 16 18 17 18 21 23 25 21 21 18 18 17 11 14 11 11 9 7 8 8 7 7 6 7 7 7 6 7 7 6 6 6
6 6 3 5 5 5 6 8 10 9 8 10 7 5 16 17 15 13 15 17 16 21 24 22 25 21 19 16 11 4 15 12 11 11 10 9 8 7 5 5 4 4 4 5 5 5 4 3 3
6 6 4 7 7 6 10 10 8 9 9 6 6 8 11 13 14 13 12 15 17 20 15 25 25 23 20 20 18 12 9 10 11 11 11 10 10 8 7 5 4 4 4 4 4 4 3 2 2
6 6 4 6 7 8 11 10 11 12 9 10 10 13 12 12 11 12 15 15 14 11 15 22 24 21 22 18 17 11 7 8 10 10 10 9 8 8 7 6 5 4 3 2 2 1 2 2 2
6 2 5 4 7 11 11 13 13 14 14 14 12 11 12 13 15 15 12 11 15 13 16 22 22 21 18 18 16 14 7 7 8 8 9 9 9 8 6 6 6 7 8 7 6 5 4 6 8
2 3 2 2 6 11 11 14 16 16 15 14 13 13 14 16 16 14 10 12 17 18 20 23 23 20 16 19 20 15 13 10 8 9 10 9 9 8 6 6 5 3 9 13 8 9 11 10 9
5 4 6 3 8 13 11 14 14 16 16 16 14 14 15 17 16 13 13 13 16 19 20 23 21 16 24 20 20 13 11 10 6 6 7 8 7 7 9 5 4 6 7 7 6 9 8 8 6
6 4 7 7 10 15 10 10 13 13 15 17 18 18 17 15 12 10 10 12 15 19 21 20 17 21 23 20 13 10 14 13 4 5 4 4 4 4 5 4 6 7 8 7 8 8 11 13 10
7 9 11 8 8 12 11 11 11 10 12 13 17 18 18 18 16 13 11 12 13 16 18 16 18 19 19 17 14 11 13 9 5 3 5 3 5 9 7 3 2 3 3 4 5 7 14 10 11
10 9 11 9 6 8 12 11 8 9 10 9 11 16 17 17 16 15 14 14 15 17 19 18 19 17 17 16 16 13 9 5 3 4 5 3 8 5 5 5 3 2 1 1 5 12 9 11 11
13 9 13 8 9 3 7 9 7 8 9 8 8 10 13 15 16 17 18 18 17 18 19 19 19 17 18 17 16 16 14 7 6 6 5 8 10 9 10 10 10 6 6 6 9 7 8 7 5
14 14 15 12 5 9 3 2 5 6 10 9 8 8 8 11 14 15 17 18 19 19 19 20 19 18 16 15 14 12 12 10 9 8 8 7 9 12 15 16 12 9 9 8 3 3 4 4 4
10 13 8 9 9 10 10 6 5 4 10 11 11 9 8 8 11 13 14 15 16 16 17 18 18 18 17 15 14 12 11 11 8 7 9 10 10 10 14 15 13 10 6 10 7 4 1 2 3
8 9 9 8 13 13 14 13 12 12 7 9 9 12 10 9 9 10 11 12 12 13 13 13 14 13 13 12 12 12 12 10 5 8 10 9 10 12 8 4 1 8 9 8 6 4 6 8 11
14 13 13 8 10 14 14 14 16 17 16 14 11 11 13 11 10 9 9 10 11 10 9 10 10 9 9 10 10 9 6 5 7 10 10 11 12 10 7 5 5 6 5 5 6 8 11 15 18
19 16 13 13 14 6 11 2 4 18 18 18 15 12 13 11 13 13 12 11 9 9 8 7 4 5 5 5 5 6 6 6 9 11 12 12 12 10 7 6 6 6 8 10 11 16 21 23 25
19 16 11 15 11 7 14 5 7 7 20 27 20 17 16 13 11 13 13 12 12 11 10 10 7 7 1 3 5 6 6 7 9 8 12 13 13 13 13 12 12 13 14 15 18 21 22 26 30
22 17 10 2 9 5 8 10 5 6 7 8 21 22 19 16 13 14 15 15 14 14 12 11 10 8 5 2 6 7 8 9 10 8 10 10 14 14 17 20 20 21 23 23 26 28 31 35 34
23 15 5 4 5 1 7 10 17 9 7 7 7 9 21 19 17 17 16 14 12 10 11 12 12 3 4 11 7 9 10 11 12 11 14 15 17 20 21 24 27 27 29 32 31 32 35 38 45
25 18 8 4 4 4 7 8 12 8 9 9 7 17 19 25 22 21 20 16 14 13 11 11 12 14 9 5 8 9 12 14 10 11 17 20 23 24 23 23 30 33 39 38 38 41 43 43 46
25 19 17 7 6 4 6 9 12 8 10 7 16 29 24 20 21 21 19 21 19 16 13 9 9 14 15 15 10 8 10 12 16 13 16 19 23 29 33 35 36 41 41 41 41 40 43 43 42
20 23 13 10 7 6 5 6 9 4 2 5 15 23 19 17 18 17 15 15 21 21 19 17 16 13 15 18 19 15 14 16 18 24 28 27 26 30 32 36 37 40 39 42 42 44 47 46 46
30 21 13 12 9 12 6 9 12 10 2 5 10 15 19 16 16 15 16 15 14 17 22 22 22 21 21 19 20 21 19 20 23 25 28 32 30 31 34 35 35 38 38 37 41 47 49 54 51
33 31 28 15 8 13 11 13 8 6 9 11 11 16 18 17 14 12 15 17 16 15 14 17 24 25 25 25 26 26 27 25 26 28 30 31 31 34 34 35 37 39 36 37 40 40 43 45 46
Wind_Direction
65 58 56 59 61 77 66 54 85 105 142 122 153 136 69 134 146 133 132 136 131 144 125 124 129 129 127 128 126 124 124 122 119 112 110 111 108 107 107 104 103 104 104 103 102 100 101 99 100
80 66 57 64 65 65 63 67 70 152 171 196 190 170 222 163 130 143 141 145 143 137 131 131 130 130 131 130 125 121 121 121 113 110 109 109 109 107 105 105 105 105 103 103 102 100 100 94 87
72 44 54 24 60 56 46 28 59 133 135 149 182 195 118 124 140 142 148 146 144 145 137 134 133 132 131 125 121 121 120 115 111 108 108 108 106 105 109 109 109 109 103 103 105 103 103 98 92
69 47 55 64 66 62 55 46 67 95 142 137 144 133 113 121 143 149 149 149 151 151 141 137 133 134 131 124 120 119 115 106 103 105 107 110 112 109 106 105 102 103 108 109 106 106 104 99 94
77 40 55 61 63 62 45 48 77 89 111 122 131 126 128 141 140 150 152 153 155 155 149 144 142 138 129 122 118 117 109 100 94 104 104 109 116 118 116 111 108 102 102 102 100 96 96 91 87
48 25 38 46 52 54 48 54 70 124 111 127 150 145 133 142 138 152 151 154 158 163 151 150 145 138 129 119 113 105 103 100 100 96 103 107 116 115 113 106 95 89 87 90 92 89 85 86 82
353 355 350 12 31 41 51 64 83 100 120 130 147 141 143 134 149 157 160 162 166 162 156 157 156 142 130 119 112 97 94 91 91 99 108 106 107 107 103 89 82 84 89 89 83 96 95 98 87
313 325 311 353 2 27 54 55 94 108 124 130 147 182 151 147 147 156 157 162 175 166 164 165 145 139 128 123 134 124 94 88 95 101 100 106 107 102 91 75 58 64 72 73 82 86 102 83 33
19 45 32 17 15 38 61 45 81 105 135 138 137 135 138 140 151 159 162 155 181 165 172 152 137 135 135 128 134 136 121 115 115 110 108 109 107 104 93 84 60 39 42 45 49 56 61 88 19
74 77 27 22 24 56 75 72 80 101 122 133 128 135 141 138 141 152 152 143 154 148 156 142 142 141 147 147 150 151 126 123 117 118 119 115 107 104 101 88 80 61 34 8 22 16 306 300 266
100 64 342 38 56 61 84 82 82 92 103 108 109 125 135 141 138 131 128 146 164 136 161 153 149 150 157 152 157 164 133 122 119 117 100 85 79 75 74 71 39 46 29 3 352 327 315 306 307
137 255 315 66 75 65 89 86 84 84 91 102 113 127 134 136 135 139 135 140 142 150 152 156 157 156 156 152 144 144 122 107 103 102 95 74 62 51 35 14 40 50 352 305 327 348 350 343 333
179 197 133 131 78 68 98 99 91 89 88 91 103 120 129 137 145 148 146 147 148 151 153 164 169 162 150 142 154 157 164 147 125 93 55 34 16 19 312 335 331 328 315 319 305 328 317 314 312
184 187 161 141 83 68 66 103 100 92 89 89 97 114 127 134 136 136 142 151 154 159 161 169 177 163 156 151 147 151 158 164 131 73 39 45 37 357 330 256 281 307 301 301 305 320 310 296 294
181 181 173 156 90 62 61 84 109 106 96 90 95 109 119 123 123 128 138 150 157 162 172 169 180 174 169 179 179 160 160 161 145 222 307 247 332 333 322 320 360 360 355 320 325 303 320 313 300
167 193 175 178 144 76 73 76 98 116 113 108 104 107 111 121 123 116 118 136 155 166 168 172 178 174 179 178 180 183 180 193 222 303 317 278 308 302 321 298 290 296 46 202 333 320 327 322 347
179 193 206 209 200 172 68 69 64 107 115 128 123 113 110 113 117 113 111 119 136 153 168 173 181 182 183 192 194 203 211 225 246 283 290 290 296 279 284 299 291 271 276 271 299 324 306 330 23
196 214 221 227 256 231 221 86 99 110 107 115 130 134 133 127 124 124 124 123 127 135 149 162 171 178 187 196 200 197 204 224 264 275 289 286 293 295 296 301 298 246 261 269 230 222 141 101 72
222 222 246 252 274 274 256 252 225 192 121 109 119 127 146 162 156 145 138 135 135 136 138 147 159 170 178 180 181 183 192 221 242 277 279 276 293 304 305 309 298 221 231 193 177 177 194 279 279
211 232 254 255 259 277 278 258 241 226 196 145 136 124 125 150 165 167 158 150 146 147 148 153 162 161 163 166 175 184 205 228 250 265 277 272 289 306 293 280 215 190 170 175 194 221 268 300 315
231 246 263 277 281 264 268 269 229 218 211 195 168 163 134 138 159 169 162 166 163 158 159 163 166 173 179 186 197 204 211 223 239 262 284 291 291 289 280 271 172 171 190 235 274 295 305 304 307
243 254 266 269 290 243 220 267 256 211 214 214 190 181 149 145 152 160 163 159 156 159 173 172 163 187 200 213 220 224 220 235 262 277 295 288 286 275 269 245 228 232 252 271 292 307 305 303 302
231 247 250 277 231 220 210 231 274 220 220 221 213 187 171 153 156 165 163 166 171 170 170 145 111 74 324 267 260 262 251 249 266 291 304 300 291 280 277 275 268 266 272 283 285 290 295 297 297
223 228 260 205 164 216 215 210 264 267 285 240 217 207 190 177 186 189 185 193 185 183 176 165 127 93 76 338 267 257 258 274 287 274 288 293 284 284 290 285 281 282 284 283 287 293 297 293 294
200 203 182 164 188 170 206 205 247 291 294 276 244 211 206 187 195 205 211 207 197 194 202 204 190 223 38 35 331 271 257 260 280 279 279 290 285 287 282 290 288 287 287 285 281 284 292 288 295
197 202 207 173 185 173 169 220 241 250 308 274 222 184 198 207 202 210 214 225 224 224 226 233 229 234 244 290 351 273 267 259 290 303 290 284 286 289 293 284 289 294 292 286 285 290 286 290 292
199 202 216 173 171 190 197 238 254 266 310 279 195 186 191 193 211 222 222 222 231 234 238 253 265 251 260 263 288 310 281 282 255 298 303 309 287 285 287 289 287 294 293 281 280 286 293 301 296
205 207 190 197 160 210 205 235 240 245 333 57 194 192 183 170 196 217 228 230 234 240 244 248 257 273 269 270 277 294 294 291 278 279 285 298 300 305 298 297 298 305 301 283 280 281 285 292 297
197 195 195 199 194 210 220 236 242 219 219 183 178 186 181 174 197 209 211 216 220 232 239 247 256 266 276 278 278 274 283 277 280 284 286 283 302 306 302 301 303 301 302 299 290 286 286 289 294
212 208 211 204 206 209 217 229 201 200 199 208 200 189 188 189 192 194 213 211 213 217 230 237 244 254 266 276 275 269 271 280 289 284 285 289 299 305 299 298 300 302 302 300 300 298 295 293 294
Height
3180 3179 3178 3177 3181 3179 3179 3181 3179 3180 3180 3180 3181 3182 3182 3182 3182 3187 3185 3188 3189 3190 3191 3195 3198 3200 3203 3204 3206 3207 3208 3209 3210 3211 3211 3212 3212 3213 3214 3214 3214 3215 3216 3216 3216 3217 3217 3217 3216
3182 3182 3181 3179 3181 3179 3182 3181 3181 3180 3180 3181 3182 3182 3183 3184 3183 3185 3188 3190 3191 3193 3195 3198 3201 3203 3205 3207 3208 3209 3211 3212 3212 3213 3214 3215 3215 3216 3216 3217 3217 3218 3218 3218 3218 3218 3219 3220 3220
3185 3184 3183 3182 3182 3182 3183 3181 3181 3181 3180 3180 3181 3182 3183 3184 3185 3187 3190 3192 3194 3194 3197 3200 3203 3205 3208 3209 3211 3212 3213 3214 3215 3215 3216 3217 3218 3218 3218 3219 3219 3219 3220 3220 3220 3221 3220 3221 3220
3187 3188 3186 3185 3184 3184 3184 3182 3181 3182 3181 3181 3181 3183 3185 3187 3189 3190 3192 3193 3195 3196 3198 3202 3205 3208 3211 3212 3214 3215 3216 3218 3218 3218 3218 3218 3219 3220 3221 3221 3222 3222 3221 3222 3222 3222 3222 3222 3222
3189 3189 3188 3187 3186 3185 3184 3183 3182 3182 3182 3183 3184 3185 3186 3189 3189 3192 3194 3195 3197 3199 3200 3202 3206 3210 3212 3214 3215 3216 3217 3219 3220 3220 3220 3221 3221 3221 3221 3221 3222 3223 3224 3224 3224 3224 3224 3224 3224
3191 3191 3190 3189 3188 3187 3186 3184 3183 3183 3184 3184 3184 3186 3188 3190 3191 3193 3195 3196 3197 3200 3201 3205 3207 3210 3214 3216 3218 3219 3219 3220 3221 3222 3222 3222 3223 3223 3223 3223 3224 3225 3225 3226 3226 3226 3226 3226 3227
3192 3192 3191 3190 3190 3188 3187 3186 3185 3185 3185 3186 3186 3186 3188 3190 3192 3194 3196 3197 3199 3201 3203 3205 3207 3212 3216 3218 3219 3221 3221 3222 3221 3223 3224 3224 3224 3225 3225 3225 3226 3226 3226 3226 3226 3226 3227 3227 3228
3192 3192 3190 3191 3191 3190 3188 3188 3187 3187 3187 3187 3188 3188 3189 3190 3193 3194 3195 3198 3200 3201 3204 3205 3210 3213 3218 3219 3221 3223 3223 3222 3224 3225 3225 3225 3226 3226 3227 3227 3227 3227 3227 3227 3227 3228 3228 3228 3229
3192 3192 3192 3193 3192 3191 3189 3190 3189 3188 3188 3189 3189 3189 3191 3192 3193 3195 3196 3198 3199 3202 3205 3207 3210 3216 3219 3221 3224 3225 3225 3225 3226 3225 3226 3227 3226 3227 3227 3228 3228 3228 3228 3227 3227 3229 3229 3229 3229
3193 3193 3193 3194 3194 3193 3191 3191 3191 3190 3190 3190 3190 3190 3191 3193 3194 3196 3198 3200 3202 3204 3205 3211 3214 3216 3219 3222 3224 3226 3227 3227 3227 3228 3228 3228 3228 3229 3229 3229 3229 3229 3229 3228 3228 3228 3227 3228 3228
3194 3194 3195 3196 3196 3195 3193 3192 3192 3191 3192 3192 3192 3192 3192 3194 3195 3197 3199 3200 3203 3206 3211 3212 3215 3218 3222 3223 3226 3228 3229 3229 3230 3230 3231 3231 3231 3232 3231 3231 3231 3231 3231 3230 3229 3228 3227 3227 3227
3196 3196 3198 3198 3198 3197 3196 3195 3195 3194 3195 3193 3193 3194 3195 3196 3197 3199 3200 3201 3202 3205 3208 3212 3216 3220 3223 3225 3227 3230 3230 3231 3232 3232 3232 3233 3233 3234 3234 3233 3233 3233 3231 3230 3230 3229 3229 3228 3227
3198 3199 3200 3200 3200 3199 3198 3198 3198 3198 3197 3196 3195 3195 3196 3197 3198 3199 3201 3202 3203 3206 3210 3214 3218 3221 3224 3226 3228 3230 3231 3232 3233 3233 3233 3234 3234 3234 3234 3234 3233 3233 3232 3231 3230 3229 3228 3227 3226
3199 3200 3202 3202 3202 3201 3201 3201 3200 3201 3200 3200 3198 3198 3198 3199 3200 3201 3202 3203 3205 3207 3211 3215 3218 3221 3223 3226 3229 3231 3233 3234 3235 3235 3236 3236 3234 3233 3233 3233 3232 3231 3231 3230 3230 3229 3227 3226 3225
3201 3201 3203 3205 3205 3204 3203 3204 3203 3204 3203 3203 3202 3202 3202 3202 3203 3203 3204 3205 3207 3210 3212 3215 3218 3221 3224 3226 3229 3231 3232 3234 3235 3236 3235 3234 3234 3232 3233 3232 3231 3230 3229 3228 3228 3227 3225 3224 3223
3202 3204 3205 3205 3205 3207 3206 3207 3206 3205 3205 3206 3206 3206 3206 3206 3206 3206 3206 3206 3207 3209 3212 3214 3217 3221 3223 3226 3229 3231 3233 3234 3235 3235 3234 3233 3232 3231 3230 3230 3230 3228 3227 3226 3224 3223 3223 3223 3221
3201 3203 3205 3206 3206 3207 3209 3209 3209 3207 3207 3208 3209 3209 3209 3209 3209 3209 3209 3209 3209 3210 3212 3215 3218 3222 3224 3226 3228 3230 3231 3233 3234 3233 3232 3232 3231 3229 3228 3227 3229 3227 3225 3223 3221 3222 3223 3222 3221
3201 3203 3205 3206 3207 3207 3209 3211 3212 3211 3209 3209 3210 3211 3212 3211 3211 3211 3211 3211 3211 3212 3214 3216 3218 3220 3223 3225 3227 3229 3231 3233 3234 3233 3231 3230 3229 3227 3227 3225 3224 3224 3223 3221 3220 3220 3220 3220 3219
3201 3202 3205 3205 3206 3207 3209 3212 3213 3213 3212 3211 3211 3211 3212 3213 3214 3213 3213 3214 3214 3214 3215 3216 3217 3220 3222 3224 3226 3229 3230 3231 3232 3231 3230 3229 3228 3226 3225 3223 3221 3222 3221 3221 3221 3220 3219 3219 3218
3200 3202 3203 3204 3205 3206 3205 3209 3211 3212 3214 3212 3212 3212 3213 3214 3215 3215 3215 3216 3216 3217 3217 3219 3221 3222 3224 3225 3227 3228 3229 3229 3230 3229 3228 3227 3226 3225 3224 3222 3221 3220 3221 3221 3221 3220 3219 3218 3216
3199 3200 3202 3204 3204 3203 3204 3204 3206 3209 3211 3212 3212 3213 3214 3214 3215 3216 3216 3216 3217 3218 3219 3220 3221 3223 3224 3225 3225 3227 3228 3229 3229 3228 3227 3226 3225 3224 3224 3223 3222 3222 3222 3221 3220 3219 3217 3216 3213
3197 3199 3201 3200 3202 3202 3202 3203 3201 3205 3209 3209 3211 3212 3213 3214 3215 3215 3215 3216 3218 3219 3219 3220 3221 3222 3223 3224 3225 3226 3227 3228 3228 3226 3226 3224 3224 3224 3224 3223 3223 3222 3221 3219 3218 3218 3216 3213 3210
3197 3198 3199 3199 3198 3199 3200 3204 3199 3201 3203 3204 3208 3210 3212 3213 3214 3215 3216 3216 3217 3218 3219 3220 3221 3222 3222 3223 3224 3225 3226 3226 3225 3226 3225 3223 3223 3223 3223 3222 3221 3220 3218 3217 3215 3212 3210 3208 3206
3192 3196 3196 3195 3197 3198 3198 3201 3197 3197 3197 3200 3204 3207 3210 3211 3213 3214 3215 3215 3216 3217 3218 3220 3221 3221 3221 3221 3222 3222 3223 3224 3224 3224 3222 3221 3220 3221 3221 3221 3219 3217 3215 3212 3210 3208 3205 3203 3199
3188 3192 3195 3196 3195 3194 3195 3200 3195 3195 3195 3196 3199 3202 3206 3208 3210 3211 3212 3213 3214 3215 3216 3218 3220 3220 3220 3220 3221 3221 3221 3221 3222 3222 3220 3219 3218 3216 3215 3215 3215 3213 3210 3208 3204 3202 3199 3197 3194
3183 3187 3188 3188 3190 3192 3195 3195 3193 3192 3193 3191 3193 3197 3201 3204 3206 3208 3210 3212 3213 3214 3215 3216 3218 3218 3218 3218 3219 3218 3219 3219 3219 3219 3218 3217 3215 3214 3211 3209 3209 3206 3203 3200 3199 3196 3193 3190 3187
3178 3182 3185 3185 3188 3191 3192 3191 3190 3190 3189 3187 3189 3192 3196 3200 3203 3205 3207 3209 3210 3212 3213 3215 3216 3216 3216 3217 3217 3218 3217 3216 3217 3215 3214 3213 3211 3209 3206 3204 3202 3200 3195 3192 3190 3189 3186 3182 3179
3173 3178 3181 3182 3186 3188 3188 3188 3188 3188 3188 3186 3187 3190 3195 3198 3200 3202 3204 3206 3208 3210 3211 3212 3213 3214 3215 3214 3215 3215 3214 3213 3213 3211 3209 3207 3205 3202 3199 3197 3194 3191 3187 3183 3181 3179 3177 3174 3172
3167 3170 3174 3178 3180 3181 3184 3185 3186 3186 3187 3187 3189 3191 3194 3196 3198 3199 3201 3202 3205 3206 3208 3209 3210 3211 3211 3212 3212 3211 3210 3208 3207 3206 3204 3201 3199 3196 3193 3191 3187 3184 3180 3174 3172 3169 3167 3164 3160
3161 3164 3169 3172 3178 3178 3180 3182 3183 3184 3184 3186 3188 3189 3192 3194 3196 3196 3197 3198 3200 3202 3203 3205 3207 3207 3208 3208 3207 3207 3204 3203 3202 3201 3198 3195 3193 3190 3187 3184 3180 3176 3172 3168 3164 3160 3158 3155 3151